Location: Waco, TX
(31.5480°N, 97.1670°W)
Time: 20:15:26
(UTC-05:00)

ISS - Pass Details

Date: 23 September 2018
Orbit: 403 x 408 km, 51.6° (Epoch: 26 September)

Event Time Altitude Azimuth Distance (km) Brightness Sun altitude
Rises 18:37:46 0° 192° (SSW) 2,314 0.3 9.0°
Reaches altitude 10° 18:40:16 10° 172° (S) 1,459 -1.0 8.5°
Maximum altitude 18:42:34 18° 127° (SE) 1,080 -2.0 8.0°
Drops below altitude 10° 18:44:53 10° 82° (E) 1,465 -1.6 7.5°
Sets 18:47:24 0° 63° (ENE) 2,328 -0.6 6.9°
